• In France
  • List of Countries
  • For 7 days
  • Water Temperature
  • Satellite Maps
  • Weather Map
  • Weather Widgets
  • user-avatar
    Login

    Hourly Weather Quibdó

    Today, 19 June, Tuesday

    Time Temperature Precipitation Wind Pressure Humidity
    00:00 +25°C° 1.1 mm 1 mps 752 mmHg 93%
    01:00 +25°C° 1.1 mm 1 mps 752 mmHg 93%
    02:00 +25°C° 1.1 mm 1 mps 751 mmHg 93%
    03:00 +25°C° 1.1 mm 1 mps 751 mmHg 92%
    04:00 +23°C° 1.1 mm 0 mps 751 mmHg 92%
    05:00 +23°C° 0.1 mm 0 mps 751 mmHg 91%
    06:00 +23°C° 0.1 mm 0 mps 751 mmHg 90%
    07:00 +24°C° 0.1 mm 0 mps 752 mmHg 90%
    08:00 +25°C° 0 mm 0 mps 751 mmHg 84%
    09:00 +29°C° 0 mm 1 mps 751 mmHg 79%
    10:00 +31°C° 0 mm 1 mps 751 mmHg 74%
    11:00 +31°C° 0.4 mm 1 mps 751 mmHg 74%
    12:00 +31°C° 0.4 mm 1 mps 750 mmHg 74%
    13:00 +32°C° 0.4 mm 1 mps 750 mmHg 74%
    14:00 +31°C° 1.4 mm 1 mps 749 mmHg 78%
    15:00 +30°C° 1.4 mm 1 mps 749 mmHg 81%
    16:00 +29°C° 1.4 mm 1 mps 749 mmHg 85%
    17:00 +28°C° 1.5 mm 1 mps 749 mmHg 88%
    18:00 +27°C° 1.5 mm 1 mps 750 mmHg 92%
    19:00 +26°C° 1.5 mm 1 mps 750 mmHg 95%
    20:00 +26°C° 1.7 mm 1 mps 751 mmHg 95%
    21:00 +24°C° 1.7 mm 0 mps 752 mmHg 94%
    22:00 +23°C° 1.7 mm 0 mps 752 mmHg 94%
    23:00 +23°C° 0.9 mm 0 mps 752 mmHg 94%

    Tomorrow, 20 June, Wednesday

    Time Temperature Precipitation Wind Pressure Humidity
    00:00 +23°C° 0.9 mm 0 mps 752 mmHg 94%
    01:00 +23°C° 0.9 mm 0 mps 752 mmHg 94%
    02:00 +23°C° 0.5 mm 0 mps 752 mmHg 93%
    03:00 +23°C° 0.5 mm 0 mps 751 mmHg 93%
    04:00 +22°C° 0.5 mm 0 mps 751 mmHg 93%
    05:00 +23°C° 0 mm 0 mps 751 mmHg 92%
    06:00 +23°C° 0 mm 0 mps 751 mmHg 91%
    07:00 +23°C° 0 mm 0 mps 752 mmHg 90%
    08:00 +25°C° 0.2 mm 0 mps 752 mmHg 84%
    09:00 +29°C° 0.2 mm 1 mps 752 mmHg 78%
    10:00 +31°C° 0.2 mm 1 mps 752 mmHg 72%
    11:00 +31°C° 0.4 mm 1 mps 751 mmHg 70%
    12:00 +32°C° 0.4 mm 1 mps 751 mmHg 68%
    13:00 +33°C° 0.4 mm 1 mps 750 mmHg 66%
    14:00 +32°C° 1.2 mm 1 mps 750 mmHg 71%
    15:00 +31°C° 1.2 mm 1 mps 749 mmHg 76%
    16:00 +30°C° 1.2 mm 1 mps 749 mmHg 80%
    17:00 +29°C° 1.1 mm 1 mps 749 mmHg 85%
    18:00 +28°C° 1.1 mm 1 mps 750 mmHg 90%
    19:00 +24°C° 1.1 mm 0 mps 750 mmHg 95%
    20:00 +24°C° 0.1 mm 0 mps 751 mmHg 95%
    21:00 +24°C° 0.1 mm 0 mps 752 mmHg 95%
    22:00 +24°C° 0.1 mm 0 mps 752 mmHg 95%
    23:00 +23°C° 1.2 mm 0 mps 752 mmHg 94%

    Day after tomorrow, 21 June, Thursday

    Time Temperature Precipitation Wind Pressure Humidity
    00:00 +23°C° 1.2 mm 0 mps 752 mmHg 94%
    01:00 +25°C° 1.2 mm 1 mps 752 mmHg 94%
    02:00 +23°C° 0.6 mm 0 mps 752 mmHg 94%
    03:00 +23°C° 0.6 mm 0 mps 752 mmHg 93%
    04:00 +23°C° 0.6 mm 0 mps 751 mmHg 93%
    05:00 +23°C° 0 mm 0 mps 752 mmHg 92%
    06:00 +23°C° 0 mm 0 mps 752 mmHg 91%
    07:00 +23°C° 0 mm 0 mps 752 mmHg 90%
    08:00 +25°C° 0 mm 0 mps 752 mmHg 85%
    09:00 +28°C° 0 mm 1 mps 752 mmHg 81%
    10:00 +30°C° 0 mm 1 mps 753 mmHg 76%
    11:00 +31°C° 0.2 mm 1 mps 752 mmHg 74%
    12:00 +31°C° 0.2 mm 1 mps 751 mmHg 72%
    13:00 +32°C° 0.2 mm 1 mps 751 mmHg 70%
    14:00 +31°C° 1 mm 1 mps 750 mmHg 75%
    15:00 +30°C° 1 mm 1 mps 750 mmHg 80%
    16:00 +29°C° 1 mm 1 mps 749 mmHg 85%
    17:00 +28°C° 0.8 mm 1 mps 750 mmHg 89%
    18:00 +27°C° 0.8 mm 1 mps 750 mmHg 92%
    19:00 +26°C° 0.8 mm 1 mps 751 mmHg 95%
    20:00 +24°C° 0.3 mm 0 mps 751 mmHg 95%
    21:00 +24°C° 0.3 mm 0 mps 752 mmHg 95%
    22:00 +23°C° 0.3 mm 0 mps 753 mmHg 95%
    23:00 +23°C° 0.1 mm 0 mps 752 mmHg 95%

    22 June, Friday

    Time Temperature Precipitation Wind Pressure Humidity
    00:00 +23°C° 0.1 mm 0 mps 752 mmHg 94%
    01:00 +23°C° 0.1 mm 0 mps 752 mmHg 94%
    02:00 +23°C° 0 mm 0 mps 751 mmHg 94%
    03:00 +23°C° 0 mm 0 mps 751 mmHg 94%
    04:00 +23°C° 0 mm 0 mps 751 mmHg 94%
    05:00 +23°C° 0 mm 0 mps 751 mmHg 92%
    06:00 +23°C° 0 mm 0 mps 752 mmHg 91%
    07:00 +23°C° 0 mm 0 mps 752 mmHg 90%
    08:00 +25°C° 0 mm 0 mps 752 mmHg 83%
    09:00 +29°C° 0 mm 1 mps 752 mmHg 76%
    10:00 +31°C° 0 mm 1 mps 752 mmHg 70%
    11:00 +32°C° 0.1 mm 1 mps 751 mmHg 68%
    12:00 +33°C° 0.1 mm 1 mps 751 mmHg 65%
    13:00 +33°C° 0.1 mm 1 mps 750 mmHg 63%
    14:00 +32°C° 1.1 mm 1 mps 750 mmHg 69%
    15:00 +31°C° 1.1 mm 1 mps 749 mmHg 75%
    16:00 +30°C° 1.1 mm 1 mps 749 mmHg 80%
    17:00 +29°C° 0.9 mm 1 mps 749 mmHg 85%
    18:00 +28°C° 0.9 mm 1 mps 750 mmHg 90%
    19:00 +26°C° 0.9 mm 1 mps 750 mmHg 95%
    20:00 +26°C° 0.5 mm 1 mps 751 mmHg 95%
    21:00 +24°C° 0.5 mm 0 mps 751 mmHg 95%
    22:00 +24°C° 0.5 mm 0 mps 752 mmHg 95%
    23:00 +24°C° 1.1 mm 0 mps 752 mmHg 95%

    23 June, Saturday

    Time Temperature Precipitation Wind Pressure Humidity
    00:00 +23°C° 1.1 mm 0 mps 751 mmHg 94%
    01:00 +23°C° 1.1 mm 0 mps 751 mmHg 94%
    02:00 +23°C° 0.9 mm 0 mps 751 mmHg 94%
    03:00 +23°C° 0.9 mm 0 mps 751 mmHg 94%
    04:00 +23°C° 0.9 mm 0 mps 751 mmHg 94%
    05:00 +23°C° 0.1 mm 0 mps 751 mmHg 93%
    06:00 +23°C° 0.1 mm 0 mps 751 mmHg 92%
    07:00 +23°C° 0.1 mm 0 mps 752 mmHg 90%
    08:00 +27°C° 0.5 mm 1 mps 752 mmHg 86%
    09:00 +28°C° 0.5 mm 1 mps 752 mmHg 82%
    10:00 +29°C° 0.5 mm 1 mps 752 mmHg 78%
    11:00 +30°C° 0.8 mm 1 mps 751 mmHg 77%
    12:00 +30°C° 0.8 mm 1 mps 751 mmHg 76%
    13:00 +31°C° 0.8 mm 1 mps 750 mmHg 75%
    14:00 +30°C° 1.4 mm 1 mps 750 mmHg 78%
    15:00 +30°C° 1.4 mm 1 mps 749 mmHg 81%
    16:00 +29°C° 1.4 mm 1 mps 749 mmHg 83%
    17:00 +28°C° 0.5 mm 1 mps 749 mmHg 87%
    18:00 +27°C° 0.5 mm 1 mps 750 mmHg 91%
    19:00 +24°C° 0.5 mm 0 mps 750 mmHg 95%
    20:00 +24°C° 0.2 mm 0 mps 751 mmHg 95%
    21:00 +24°C° 0.2 mm 0 mps 751 mmHg 96%
    22:00 +23°C° 0.2 mm 0 mps 752 mmHg 96%
    23:00 +23°C° 0.1 mm 0 mps 751 mmHg 95%

    24 June, Sunday

    Time Temperature Precipitation Wind Pressure Humidity
    00:00 +23°C° 0.1 mm 0 mps 751 mmHg 95%
    01:00 +23°C° 0.1 mm 0 mps 751 mmHg 95%
    02:00 +23°C° 0.3 mm 0 mps 751 mmHg 94%
    03:00 +23°C° 0.3 mm 0 mps 751 mmHg 94%
    04:00 +22°C° 0.3 mm 0 mps 750 mmHg 93%
    05:00 +23°C° 0.2 mm 0 mps 751 mmHg 92%
    06:00 +23°C° 0.2 mm 0 mps 751 mmHg 91%
    07:00 +23°C° 0.2 mm 0 mps 751 mmHg 90%
    08:00 +25°C° 0.3 mm 0 mps 751 mmHg 84%
    09:00 +29°C° 0.3 mm 1 mps 751 mmHg 78%
    10:00 +30°C° 0.3 mm 1 mps 751 mmHg 72%
    11:00 +31°C° 0.5 mm 1 mps 751 mmHg 71%
    12:00 +32°C° 0.5 mm 1 mps 750 mmHg 70%
    13:00 +32°C° 0.5 mm 1 mps 749 mmHg 69%
    14:00 +31°C° 1 mm 1 mps 749 mmHg 73%
    15:00 +31°C° 1 mm 1 mps 748 mmHg 76%
    16:00 +30°C° 1 mm 1 mps 748 mmHg 80%
    17:00 +29°C° 0.8 mm 1 mps 748 mmHg 85%
    18:00 +27°C° 0.8 mm 1 mps 749 mmHg 90%
    19:00 +26°C° 0.8 mm 1 mps 750 mmHg 94%
    20:00 +24°C° 0.6 mm 0 mps 750 mmHg 94%
    21:00 +24°C° 0.6 mm 0 mps 751 mmHg 95%
    22:00 +23°C° 0.6 mm 0 mps 751 mmHg 95%
    23:00 +23°C° 0.5 mm 0 mps 751 mmHg 95%
    Show more